GEFSNGP_500_meanwind_186.txt.gz
Wind_Speed
30 31 31 31 31 31 31 31 30 29 27 24 23 21 20 18 17 17 17 16 15 15 15 16 16 17 16 16 16 15 15 15 15 15 14 14 14 15 16 16 16 16 16 16
29 30 31 31 31 31 30 30 29 28 27 24 23 21 19 19 17 15 15 15 15 15 16 15 15 16 16 16 16 15 14 14 15 15 14 14 15 15 16 16 16 16 17 17
29 29 30 31 31 31 30 29 28 27 25 24 23 21 20 19 18 17 15 14 14 15 16 15 15 16 16 16 16 15 15 14 14 15 15 14 15 15 15 15 16 16 17 17
29 29 31 30 29 30 29 28 27 26 24 24 24 22 21 20 19 19 17 16 16 16 15 15 15 15 16 15 15 14 14 14 15 16 16 15 16 16 16 16 17 17 18 18
30 30 30 30 29 28 27 26 26 25 24 24 23 23 22 21 20 20 19 18 17 17 16 16 15 16 15 15 15 15 15 15 15 16 16 16 16 16 17 18 18 19 19 19
30 31 31 28 28 28 27 27 25 25 24 23 23 23 22 21 21 20 20 18 17 17 16 16 16 15 15 14 15 16 16 16 16 17 17 17 17 17 18 19 20 20 20 20
31 30 30 28 28 28 28 26 25 25 24 23 23 23 23 23 22 21 21 19 18 17 17 17 16 15 15 15 15 16 16 17 17 16 17 17 18 19 20 20 21 21 21 22
30 31 30 28 27 27 27 26 25 24 24 24 24 24 24 23 22 22 21 20 19 19 18 18 17 16 15 14 14 15 15 16 16 16 17 18 20 21 21 22 23 23 23 24
31 30 28 27 27 27 27 26 25 25 24 24 24 23 23 23 21 20 20 19 19 19 18 18 17 15 15 14 14 15 15 15 16 16 18 19 20 20 21 22 22 22 23 24
30 29 28 27 27 27 27 27 26 26 25 25 25 24 23 22 22 22 21 20 19 19 18 18 17 16 16 15 16 16 16 16 17 17 18 19 19 19 19 20 20 21 23 23
29 28 27 26 27 28 28 28 27 27 26 26 26 25 25 24 23 22 21 20 20 19 18 17 17 16 16 16 17 17 17 17 18 18 18 18 18 18 18 19 20 21 23 23
28 27 26 25 25 26 27 27 27 27 26 26 26 26 24 24 23 21 20 19 18 18 18 17 16 16 16 16 17 17 18 18 18 18 18 18 19 19 20 20 21 21 22 23
27 26 26 25 25 25 25 26 26 26 25 24 24 24 24 23 21 20 19 18 17 18 17 16 16 16 16 16 17 18 18 18 18 18 19 19 20 20 20 21 22 22 23 23
27 26 26 25 24 24 23 23 24 24 23 23 22 22 22 21 20 20 19 18 18 17 17 16 16 16 16 17 17 17 18 19 19 19 20 20 20 21 22 22 23 23 24 24
26 25 24 24 24 23 23 23 24 23 22 22 22 21 21 21 20 20 19 19 18 18 17 17 17 17 17 17 18 18 19 19 19 20 20 21 21 22 23 23 24 25 25 26
25 25 24 23 23 23 23 22 22 21 21 22 22 22 21 20 19 19 18 18 18 18 18 17 17 17 17 17 17 17 18 19 19 20 20 21 22 23 24 25 25 26 26 27
24 23 22 22 22 23 23 22 22 21 21 21 21 21 21 20 19 18 18 18 18 17 16 16 16 17 17 17 17 17 18 18 19 20 21 21 22 24 24 25 26 26 27 28
23 22 22 21 22 23 23 21 21 21 20 19 19 19 19 18 17 17 17 17 17 16 16 15 15 16 16 17 17 17 18 19 20 21 21 22 23 24 25 26 27 27 27 28
23 22 21 21 21 22 22 21 20 20 20 19 17 17 18 17 17 17 17 17 17 16 15 15 16 16 17 17 18 19 20 20 21 21 22 23 24 25 25 26 27 27 27 28
21 21 20 19 20 21 21 20 20 20 19 18 18 17 16 16 16 16 16 16 16 16 16 16 16 17 17 18 19 20 20 21 22 23 23 24 24 25 26 26 27 28 28 29
20 19 19 20 20 20 20 19 19 19 18 17 17 17 16 16 16 16 15 15 16 16 16 17 17 17 18 19 19 20 21 21 22 23 23 24 25 26 27 28 29 29 30 31
20 19 19 20 21 20 20 20 20 19 19 18 17 16 15 15 15 16 16 16 16 16 16 17 17 18 19 20 21 21 22 22 23 24 25 26 26 27 27 28 29 30 30 31
19 20 19 20 20 20 19 18 18 17 18 18 18 17 17 16 16 16 17 17 16 16 17 17 18 19 20 21 21 21 22 22 23 24 25 26 26 27 28 28 29 29 30 30
19 19 18 18 18 18 18 18 17 17 17 18 18 18 17 17 16 16 16 16 17 18 18 18 19 20 20 20 20 21 21 22 23 24 25 25 26 27 27 28 29 29 30 30
19 18 18 18 18 18 18 18 17 16 16 15 15 16 16 16 16 16 16 17 17 17 18 18 19 19 20 20 20 21 22 23 24 24 25 25 26 27 27 28 28 29 30 30
18 18 18 18 17 17 17 16 16 16 15 15 15 15 15 15 16 16 16 16 16 16 17 17 18 18 18 19 21 22 23 25 25 25 25 26 26 27 27 28 28 29 29 29
18 17 16 16 16 16 15 15 15 15 15 15 14 14 14 13 14 14 14 14 15 15 15 16 17 18 19 21 22 23 23 24 25 25 25 26 26 27 27 28 28 28 28 28

GEFSNGP_500_meanwind_192.txt.gz
Wind_Speed
31 31 30 29 29 29 28 27 25 24 24 24 22 21 21 20 20 20 18 18 18 17 17 16 17 17 17 17 16 16 16 17 18 18 17 18 17 17 17 18 18 19 19 19
30 30 29 29 29 29 28 27 26 25 24 24 22 21 21 20 20 20 19 18 18 17 17 17 17 17 17 16 16 17 18 18 18 17 17 17 17 18 19 19 19 19 19 19
28 29 29 29 29 29 28 26 25 25 24 23 22 21 21 21 20 20 19 19 18 17 16 16 16 16 17 17 17 17 18 17 17 17 16 16 17 17 18 18 19 19 20 20
27 29 27 28 28 27 27 26 25 24 24 23 22 21 21 21 21 20 19 19 18 18 17 17 16 16 16 17 18 18 18 17 17 17 16 17 17 17 18 19 19 19 20 21
27 27 28 28 27 26 26 25 25 24 23 22 22 22 22 22 21 20 20 20 20 19 18 17 17 16 15 16 17 18 18 18 18 18 18 19 19 19 19 19 20 21 21 21
28 26 26 26 26 25 25 25 24 24 23 22 22 22 22 22 22 21 21 21 20 20 19 18 17 16 16 16 17 18 18 19 19 19 19 19 20 19 19 19 20 21 21 20
27 26 26 26 25 24 25 25 24 24 23 23 23 23 23 23 23 22 21 21 20 20 20 19 18 18 17 17 18 18 19 19 20 20 20 19 19 19 20 20 21 22 22 21
28 26 26 24 24 25 24 24 23 23 23 24 25 24 24 24 23 23 22 21 21 21 20 20 19 19 19 19 19 20 20 20 20 20 20 20 19 20 20 20 21 21 22 22
29 28 26 24 24 24 24 24 24 24 24 24 25 25 25 24 24 23 23 23 22 22 21 20 21 21 20 20 20 20 20 20 20 20 20 20 20 20 20 20 21 21 21 21
29 28 26 25 25 25 24 24 24 24 24 24 24 25 25 25 24 23 23 23 23 23 22 22 22 22 22 22 21 20 19 19 19 19 19 19 19 19 20 20 20 21 21 21
28 27 27 26 26 25 25 25 25 25 25 25 25 25 25 25 25 25 24 23 23 22 22 22 23 23 23 23 22 21 20 19 19 19 19 20 20 20 21 21 21 22 23 23
29 28 27 27 26 26 26 25 25 25 26 25 25 25 25 25 26 26 25 24 23 22 22 22 22 23 23 23 22 22 21 21 21 21 21 21 22 22 22 22 23 23 24 24
29 29 28 28 27 27 27 26 26 25 26 26 26 26 25 25 25 26 25 24 23 23 23 22 21 21 22 23 22 21 21 21 22 22 21 21 22 22 22 22 23 24 24 25
29 29 29 29 28 27 27 27 27 26 26 27 27 26 26 25 25 24 24 23 23 23 23 22 21 20 20 21 20 20 20 21 20 20 21 21 21 22 22 22 23 24 25 26
29 29 29 28 28 27 27 27 27 27 26 27 26 26 26 25 25 24 24 23 23 22 22 21 21 20 20 19 19 19 18 18 18 19 19 20 21 21 22 22 22 23 25 26
29 29 28 28 27 28 27 27 26 26 26 26 26 26 26 26 25 24 24 23 23 22 22 22 21 21 20 19 19 18 18 17 17 18 19 20 20 21 22 23 24 25 26 27
29 29 29 28 28 27 27 27 26 26 25 25 25 25 24 24 24 24 23 23 22 22 22 21 21 20 20 19 19 19 19 18 18 19 20 21 22 22 23 24 25 26 27 28
29 29 28 28 28 27 26 25 25 25 25 24 25 24 23 23 23 23 22 22 22 22 21 20 19 19 19 19 20 19 19 19 20 20 21 22 23 23 25 25 26 27 28 28
27 28 28 27 27 26 25 24 25 25 24 24 23 22 22 22 22 22 22 21 21 20 20 19 19 19 19 19 19 19 19 19 20 19 20 21 23 24 25 26 27 27 28 28
26 27 28 27 26 25 25 24 25 24 24 23 23 22 22 21 21 21 20 20 19 18 18 18 18 19 20 20 20 19 19 19 19 20 21 22 23 24 26 26 27 27 28 28
25 25 26 26 26 25 25 25 24 24 23 23 22 22 21 20 20 20 20 20 19 18 18 18 18 18 19 19 19 19 19 19 20 21 22 23 24 25 26 26 26 27 27 27
25 25 25 25 25 24 23 24 24 23 23 23 21 21 20 20 19 19 18 18 18 18 18 17 17 17 17 18 19 19 20 20 21 22 23 24 25 25 25 26 26 26 27 28
25 25 25 24 24 23 23 23 24 23 22 21 20 19 19 18 17 17 17 16 16 16 16 16 16 17 17 18 18 19 20 21 22 22 23 24 25 25 26 26 26 27 28 29
24 25 24 24 24 23 23 22 22 21 21 21 20 19 18 17 16 16 16 16 16 16 16 16 17 17 18 19 19 20 21 21 22 23 24 25 25 25 26 27 27 28 29 29
22 23 23 22 22 22 22 21 21 21 20 20 19 18 17 16 16 16 15 15 15 16 16 17 17 18 19 20 20 20 21 21 22 23 23 24 25 26 27 27 27 28 28 28
21 21 21 21 20 20 20 19 19 18 17 17 16 16 16 16 16 16 15 15 16 16 17 17 18 19 19 19 19 19 20 20 21 23 24 25 25 26 26 26 27 27 28 28
21 21 20 18 18 18 17 17 16 16 16 15 15 15 14 14 15 15 15 15 15 16 16 17 17 17 17 17 18 19 20 21 22 23 24 25 25 26 26 26 26 26 27 27

GEFSNGP_500_meanwind_198.txt.gz
Wind_Speed
27 20 20 23 27 28 28 27 24 21 21 22 20 21 23 22 21 21 20 19 19 19 19 18 18 17 17 17 16 16 16 16 15 16 16 17 17 18 17 17 17 17 17 18
30 24 22 22 24 25 27 27 25 22 21 23 23 25 26 23 22 22 21 20 19 19 19 19 18 18 18 17 16 16 16 16 16 16 17 18 18 17 17 17 18 18 18 19
30 26 25 25 25 25 26 26 26 26 25 26 27 27 27 25 24 23 22 22 21 20 19 19 19 18 19 18 17 17 17 17 16 17 18 18 18 17 17 18 18 18 19 20
29 27 27 25 24 25 26 27 28 28 29 27 26 28 28 27 25 24 23 22 21 20 19 19 19 18 18 18 18 18 18 18 19 19 19 18 17 18 18 18 19 19 19 20
29 27 26 25 26 26 27 28 29 29 28 29 28 29 29 27 25 24 23 22 21 20 20 19 19 19 19 19 19 19 19 19 19 19 19 18 19 19 19 20 20 20 20 20
30 28 25 26 26 27 27 29 29 30 30 30 29 30 28 26 25 23 22 22 21 20 20 20 20 20 20 20 20 20 20 20 19 19 19 19 20 20 20 20 20 20 20 21
29 29 27 26 26 26 28 30 30 30 30 29 29 29 28 26 24 22 22 21 21 21 20 21 21 21 21 21 21 21 21 20 20 20 20 20 20 20 21 21 21 21 22 22
30 29 28 28 28 29 30 30 30 29 29 29 28 28 26 24 22 22 22 21 21 21 21 21 21 21 22 22 22 22 22 21 21 21 21 21 21 21 22 21 21 22 22 22
32 31 30 30 30 29 28 29 28 28 28 27 27 27 25 24 24 23 23 22 22 22 22 22 22 22 22 22 22 22 22 22 23 23 22 22 22 22 23 23 23 22 22 23
34 33 32 30 29 28 28 27 27 27 27 26 26 26 25 24 24 23 23 23 23 22 22 22 22 22 22 22 22 23 23 24 24 23 23 23 23 24 24 24 23 23 24 24
36 36 34 32 29 28 27 27 27 26 25 26 26 25 25 25 24 24 23 23 23 23 23 23 23 23 23 23 23 24 23 23 22 22 22 23 23 24 24 24 23 24 25 25
34 34 32 31 30 28 28 28 27 26 26 26 25 25 25 24 24 24 24 24 24 23 23 24 24 23 23 23 23 23 23 22 22 22 23 23 23 23 23 23 24 25 25 25
34 33 33 31 30 29 29 28 27 27 27 27 26 25 25 24 24 25 25 25 24 24 24 24 24 24 23 23 23 23 23 23 23 23 23 23 23 23 23 23 24 24 25 25
33 33 33 32 30 30 30 29 28 27 27 26 25 25 25 25 25 25 25 25 25 25 24 24 24 24 23 23 23 23 23 23 23 22 22 23 23 23 23 24 24 24 25 25
32 33 33 33 32 31 31 30 29 29 28 27 26 26 26 25 25 25 25 26 25 25 25 25 23 23 23 23 23 23 23 23 23 23 23 23 23 23 24 24 25 25 26 27
32 32 33 32 32 32 31 30 30 29 28 28 27 27 26 26 25 25 25 25 26 25 24 24 23 23 23 22 22 22 22 21 22 23 23 24 25 24 24 25 25 26 26 27
33 33 33 33 32 32 31 31 30 29 29 28 27 26 26 25 24 24 24 25 25 25 24 24 24 24 23 22 22 22 21 21 22 22 23 23 23 23 24 24 25 26 27 27
31 32 33 33 32 31 31 30 30 29 28 28 27 26 26 25 25 24 24 25 24 24 24 24 24 23 22 22 22 22 22 22 23 23 22 23 23 24 25 25 26 26 27 28
32 32 33 32 32 31 31 30 30 29 29 28 27 27 26 25 25 24 24 23 23 23 22 22 22 22 22 22 22 22 22 22 22 22 22 23 23 24 25 25 26 27 28 29
30 31 31 31 31 31 31 30 29 29 29 28 27 27 26 25 24 24 23 22 22 22 21 21 21 21 21 21 22 22 22 22 22 22 23 23 24 25 25 26 26 28 29 29
28 30 30 30 30 30 29 28 28 27 27 27 27 26 25 25 24 23 23 22 22 21 21 21 20 21 21 21 21 22 22 23 22 22 23 24 25 25 25 26 27 28 29 29
27 28 28 28 28 28 28 27 27 26 26 26 25 25 24 24 23 22 22 22 21 21 20 20 20 21 21 21 21 21 22 22 22 23 24 24 25 25 25 26 28 28 29 29
24 25 26 27 26 26 26 26 26 26 25 25 24 24 23 23 22 22 21 21 21 20 20 21 21 21 20 20 19 19 20 22 22 23 23 24 24 25 26 27 28 28 29 30
23 23 24 24 24 24 24 25 25 25 24 24 24 24 23 22 21 20 19 19 19 19 19 20 20 19 18 18 19 19 20 21 22 23 24 25 25 25 26 27 28 29 30 30
22 22 22 22 22 22 23 23 23 24 23 23 23 23 22 21 20 20 20 20 20 19 19 18 18 17 18 19 19 20 20 21 23 24 24 24 25 25 26 27 28 29 30 30
21 20 20 21 21 21 22 22 22 22 21 21 20 19 19 19 19 19 19 17 17 17 16 16 16 17 18 18 19 20 21 21 22 23 23 23 24 25 26 27 28 28 29 29
19 19 19 20 21 21 21 20 19 19 19 18 17 17 17 17 17 17 16 15 15 15 15 15 15 16 18 18 19 19 20 20 21 21 22 22 23 24 26 26 27 28 28 29

GEFSNGP_500_meanwind_204.txt.gz
Wind_Speed
32 30 29 28 28 29 31 31 30 28 27 25 23 22 21 19 18 17 15 15 14 14 13 14 13 12 12 11 12 12 11 11 11 10 10 11 12 12 13 12 12 12 12 12
32 31 30 29 28 28 29 29 29 28 27 25 23 23 21 20 19 18 17 16 15 15 15 14 13 12 12 11 11 11 11 11 11 10 11 12 13 13 13 13 12 12 12 12
33 32 31 30 28 28 29 30 29 29 27 26 25 24 22 21 20 18 17 17 16 16 15 15 14 13 12 12 13 12 12 12 12 12 12 12 13 14 13 13 14 13 14 14
34 33 33 29 27 28 29 29 29 28 28 27 26 25 24 23 22 22 20 19 18 18 17 16 16 15 14 14 14 14 14 14 13 13 13 13 14 15 14 14 14 14 16 16
36 36 34 30 28 29 29 28 28 28 27 28 27 27 27 25 24 22 21 20 19 19 18 18 17 16 16 15 15 15 15 15 14 14 14 14 15 16 15 15 15 16 17 18
37 38 37 33 31 29 30 30 29 28 28 28 28 28 26 25 25 23 22 21 20 19 18 18 17 17 17 16 16 16 15 15 16 16 16 16 17 17 17 17 17 17 18 19
38 38 38 36 34 32 33 31 29 29 28 28 28 27 26 25 25 22 21 21 19 18 18 18 18 18 17 17 16 16 16 16 17 17 17 18 18 18 18 18 18 19 19 20
38 38 37 36 36 35 33 30 29 29 29 29 29 28 27 26 24 22 22 20 19 18 18 18 18 18 17 17 17 17 17 17 18 18 19 19 19 19 19 20 20 20 20 21
36 37 36 35 34 34 34 32 30 31 31 31 30 29 28 27 25 23 22 21 20 20 19 19 18 18 17 17 17 17 17 18 18 19 19 18 19 19 20 21 21 21 21 22
35 36 35 35 34 34 33 32 31 31 30 30 29 29 28 27 26 24 23 22 21 20 19 19 18 18 18 17 17 17 17 18 18 18 18 18 19 20 20 20 21 21 21 22
34 34 34 35 35 35 34 33 31 30 30 29 29 29 28 26 25 23 22 22 21 20 19 19 18 18 17 17 18 18 18 19 19 18 18 19 19 19 19 20 20 21 21 21
33 32 33 34 34 33 32 31 31 31 30 29 28 28 27 26 25 23 22 21 20 20 19 19 19 18 18 19 19 19 19 19 19 19 19 19 19 20 20 20 20 20 21 21
33 33 32 32 32 32 31 29 29 29 28 28 27 27 26 25 24 22 22 21 21 20 20 20 19 19 19 20 20 20 19 19 19 19 19 19 20 20 20 20 20 21 22 22
33 33 32 31 30 30 29 27 25 26 27 27 26 25 24 24 23 22 22 21 21 21 21 20 20 20 20 20 19 19 19 20 19 19 19 20 20 21 21 22 22 23 23 24
31 32 31 31 30 28 26 25 25 25 25 25 25 25 24 24 23 22 22 22 21 21 21 21 20 20 21 21 20 20 20 20 20 20 20 20 21 21 22 23 23 24 23 23
31 31 30 30 29 27 25 25 24 24 24 24 24 24 24 24 23 22 22 22 21 21 21 21 21 21 21 21 21 21 21 21 20 20 21 21 22 22 23 24 24 23 23 23
31 30 30 29 29 28 27 26 25 24 24 24 24 24 24 24 23 22 22 22 21 21 21 22 22 22 21 21 21 21 20 20 20 21 21 21 21 22 23 23 24 23 23 24
30 29 28 27 27 26 26 26 26 25 24 23 23 23 24 24 23 23 22 22 22 22 22 22 22 21 21 20 20 20 19 19 20 20 20 21 21 22 23 23 23 23 24 25
28 27 27 27 27 26 26 26 26 26 25 25 24 24 24 24 23 22 22 22 22 21 21 21 21 19 19 19 20 19 19 20 20 20 21 21 22 22 22 23 23 24 26 27
27 28 27 28 28 28 28 27 26 26 25 24 23 23 22 22 22 21 21 21 21 20 20 19 19 19 18 19 19 19 20 20 20 21 21 22 22 23 24 24 25 26 26 27
25 27 27 28 28 28 27 27 27 26 25 24 23 23 23 22 22 21 21 20 20 20 20 19 19 19 18 19 19 20 20 20 21 22 22 23 23 24 25 25 25 26 26 27
24 24 25 25 26 26 26 26 26 25 25 25 24 24 23 22 21 21 20 20 20 20 19 19 19 19 19 20 20 20 20 20 21 22 23 24 24 24 25 25 26 26 26 27
23 23 23 23 24 25 25 25 25 25 25 24 24 23 22 21 20 20 20 20 21 20 20 19 19 20 20 20 20 20 21 21 22 23 23 23 24 24 25 25 25 25 26 26
21 21 21 22 22 23 23 23 23 22 22 22 22 22 22 21 21 20 20 20 20 20 19 19 20 20 19 19 19 20 20 20 21 22 22 22 23 23 23 24 24 25 26 26
20 20 19 20 21 21 21 21 21 21 21 21 21 21 21 20 20 19 19 19 19 19 18 18 17 17 18 18 18 19 20 20 20 21 21 22 23 23 23 24 24 25 25 26
18 18 18 18 18 19 20 20 19 19 19 20 20 20 20 19 19 17 17 17 17 17 17 16 17 17 18 18 19 19 19 19 19 20 20 21 21 22 23 23 24 24 25 26
18 17 17 17 17 18 18 18 18 18 17 18 18 18 18 18 17 17 16 15 15 16 16 16 17 17 17 17 18 18 18 19 19 19 20 20 21 22 23 23 23 24 25 26

GEFSNGP_500_meanwind_210.txt.gz
Wind_Speed
34 34 34 34 33 32 32 31 30 28 28 26 24 23 21 20 19 18 16 16 15 14 13 13 14 13 14 14 13 13 12 13 12 12 13 12 12 12 13 14 14 15 14 13
34 33 33 33 33 32 31 30 29 29 27 26 25 23 22 21 20 19 18 17 17 16 15 15 14 14 14 14 14 13 13 13 13 13 13 13 13 13 14 15 15 15 14 14
34 33 33 34 32 31 31 30 29 28 26 26 24 23 22 22 21 20 19 19 18 17 16 16 16 16 15 14 14 14 14 14 14 15 15 15 15 15 15 16 16 15 16 16
34 34 35 33 32 31 30 29 28 27 26 25 23 23 22 21 20 20 19 19 19 18 18 18 17 16 16 15 15 15 15 15 16 16 16 16 17 16 17 17 17 17 17 17
34 34 34 34 33 31 30 28 27 26 26 25 24 24 22 20 20 20 21 20 20 20 20 18 17 16 16 16 16 16 16 16 17 17 17 17 17 17 17 18 18 18 18 18
34 34 35 34 33 31 30 28 26 25 24 25 24 24 22 21 20 20 20 20 20 20 18 18 17 17 16 17 17 17 17 17 17 17 17 18 18 18 18 19 19 19 18 18
32 33 34 33 32 31 30 28 26 24 24 24 24 22 21 21 21 21 20 20 19 19 18 17 18 18 17 17 18 18 17 17 17 18 18 18 18 18 19 19 18 18 19 19
31 32 32 32 32 31 29 27 26 25 24 23 23 22 21 22 22 21 21 20 19 19 18 18 18 18 18 19 18 18 18 18 18 18 18 19 19 19 19 19 19 19 19 20
30 30 30 30 31 31 29 28 27 26 25 23 23 22 22 22 22 21 19 19 19 19 19 19 19 19 19 19 19 19 19 18 18 18 19 20 20 20 20 20 20 20 20 21
29 29 28 29 30 30 29 29 28 27 26 24 23 23 23 23 23 22 21 21 20 20 20 20 20 21 21 21 20 20 20 19 19 19 19 20 20 20 20 20 20 20 21 22
30 29 28 28 28 29 29 29 29 29 28 27 26 26 25 24 23 22 22 21 21 21 21 21 21 21 21 21 20 20 20 20 20 19 19 20 20 20 20 20 20 20 21 22
31 30 29 29 29 29 29 29 29 30 29 29 28 27 25 24 23 22 22 22 22 22 22 22 21 21 20 20 20 20 20 20 19 19 19 20 20 20 20 20 20 20 21 22
30 29 28 28 29 30 30 30 30 30 30 29 29 28 26 25 24 24 23 23 22 22 21 21 20 20 20 20 20 20 20 20 20 20 20 20 20 20 20 20 21 21 22 22
30 29 28 28 28 29 30 30 30 29 29 29 29 29 28 27 25 24 23 22 21 21 21 21 21 20 20 20 20 20 20 20 20 20 20 20 20 20 20 21 22 22 22 23
29 28 28 28 28 28 29 29 29 28 28 28 29 29 27 26 25 24 23 22 21 21 21 21 21 20 21 21 20 20 20 20 20 20 20 20 20 21 21 22 22 22 23 24
29 28 27 27 27 27 27 28 28 27 27 27 28 28 26 25 24 24 22 22 21 21 21 21 21 21 21 21 20 20 20 20 21 20 20 20 20 21 22 23 23 23 24 25
29 28 27 27 26 27 28 28 28 27 27 25 25 26 25 24 24 23 22 22 21 21 21 21 21 21 21 21 21 21 20 21 21 20 20 20 21 22 22 23 23 24 24 25
26 25 25 26 25 25 25 26 26 25 25 25 24 23 23 23 23 22 22 22 22 21 21 21 21 21 21 21 21 21 21 21 20 20 20 21 22 22 23 23 23 24 24 25
25 26 26 26 26 26 25 24 25 25 24 24 24 24 23 22 22 22 22 22 22 21 21 21 21 21 21 21 20 20 20 20 20 20 21 21 22 22 23 23 24 24 25 27
25 26 26 26 26 25 25 24 24 24 25 25 24 24 24 24 23 23 22 22 21 21 21 20 20 20 20 20 19 20 20 20 20 20 21 21 22 22 23 24 25 26 27 28
23 24 25 26 26 26 25 25 25 24 24 24 24 23 24 24 23 22 21 21 20 20 19 19 18 19 19 19 20 20 20 20 20 20 21 21 22 22 23 24 25 27 28 29
22 23 23 23 24 26 25 25 25 24 24 23 23 22 22 23 22 22 21 21 20 20 19 19 19 19 18 19 19 20 20 20 20 20 21 21 22 23 25 26 27 27 28 28
21 21 22 23 23 24 24 25 24 24 24 23 23 22 22 22 21 21 21 20 20 20 20 19 19 18 18 19 19 20 20 19 19 20 20 22 23 24 25 25 26 27 27 27
21 21 22 23 24 24 25 25 24 23 23 23 23 23 23 22 21 21 21 20 20 19 19 19 19 20 20 20 19 19 19 19 20 20 22 22 23 23 24 25 26 27 27 27
21 21 21 22 23 24 24 24 23 23 23 23 24 23 23 22 22 21 20 20 19 19 20 20 20 20 19 19 20 19 19 19 20 21 21 21 22 22 23 24 26 26 27 27
20 21 21 22 22 23 23 23 23 22 22 23 23 23 23 23 22 22 21 20 20 20 20 20 20 20 20 20 19 19 19 20 21 21 22 22 23 24 25 25 26 27 27 27
19 20 20 20 21 21 21 22 22 22 21 20 21 22 23 22 22 22 21 20 20 19 19 19 19 20 19 19 19 20 20 20 21 21 22 22 23 24 25 26 27 27 27 27

GEFSNGP_500_meanwind_216.txt.gz
Wind_Speed
34 33 33 33 34 33 32 30 29 26 24 23 21 20 19 19 19 18 18 18 17 17 17 17 16 16 17 16 17 17 15 15 15 14 13 13 14 13 13 13 14 15 15 16
34 33 32 33 34 33 33 31 30 28 26 24 23 22 21 20 20 19 19 18 18 18 18 17 17 17 17 16 16 16 16 15 14 13 14 14 14 14 14 14 15 16 16 16
31 32 32 34 33 33 32 31 30 29 27 26 24 23 22 21 21 21 20 20 19 19 19 18 18 18 18 17 17 16 15 14 13 13 14 15 15 16 16 16 16 16 17 17
29 31 32 32 31 31 31 30 29 29 27 26 25 24 23 22 22 21 21 20 20 20 19 19 19 18 18 18 17 17 16 15 15 15 16 16 17 17 18 18 18 18 18 19
30 29 30 31 30 30 29 29 28 27 26 25 24 24 23 23 23 23 23 21 20 20 19 19 19 18 18 18 18 17 16 16 16 17 17 17 18 18 18 19 19 19 19 19
31 28 29 30 29 29 28 28 28 27 25 25 24 23 23 22 22 22 22 21 20 20 20 20 20 19 18 18 17 17 17 17 18 18 18 18 19 19 19 20 20 20 20 20
31 28 28 29 29 28 28 28 27 26 25 24 24 23 21 21 21 22 21 21 21 21 20 20 19 19 18 18 18 18 18 18 19 19 19 19 19 19 19 19 20 20 20 20
30 28 28 29 29 29 28 27 26 25 25 24 24 23 22 22 22 22 21 22 21 21 20 19 19 19 19 19 19 18 18 18 19 19 20 20 19 19 19 20 21 21 21 21
30 28 28 27 27 28 28 27 26 26 25 24 24 24 23 22 22 22 22 22 22 21 20 19 19 20 20 19 19 20 19 19 19 19 19 19 19 19 20 21 21 21 21 21
29 27 26 25 25 27 27 27 27 26 26 25 24 24 23 23 22 22 23 23 22 21 21 21 21 20 20 20 21 20 20 20 20 20 20 20 21 21 21 21 21 21 22 21
28 27 25 25 26 26 27 27 26 27 27 26 25 25 25 24 24 23 23 23 22 22 21 21 20 20 20 20 20 20 21 21 21 21 21 21 22 22 21 21 21 22 22 22
27 26 26 25 26 26 26 26 26 26 27 26 26 25 25 24 24 23 23 23 23 22 21 20 20 20 21 22 21 21 21 21 21 22 21 21 22 22 22 22 23 22 22 22
28 27 26 26 25 25 25 25 26 26 27 26 26 26 25 25 23 23 24 24 24 23 22 20 20 21 21 22 22 22 21 21 21 21 21 21 21 22 22 22 22 22 22 22
29 27 26 25 25 26 26 26 26 26 27 27 27 26 25 24 24 24 24 23 23 22 21 21 21 22 22 22 22 21 21 21 21 21 21 21 22 22 22 22 21 21 22 23
29 28 27 26 26 26 27 27 28 28 28 27 27 27 26 26 26 25 24 24 24 24 23 22 22 22 21 22 21 21 21 20 20 20 20 21 21 22 22 22 22 22 23 23
29 28 28 27 26 26 27 27 28 29 29 28 28 28 28 28 27 26 26 26 25 25 24 23 23 22 22 21 21 21 21 21 21 21 21 22 22 22 22 22 22 23 23 24
29 29 29 28 28 27 27 27 27 28 28 29 29 29 29 28 27 27 26 26 26 25 24 24 24 23 23 22 22 21 22 22 22 22 22 21 22 22 22 22 23 24 24 24
28 28 28 28 27 27 27 27 27 27 27 27 28 28 27 27 27 26 26 26 26 26 25 24 24 23 23 22 22 22 22 22 23 23 22 22 22 22 23 24 24 24 25 25
26 26 27 27 27 26 26 26 26 26 26 26 27 27 27 26 25 25 25 25 25 25 25 24 24 24 23 22 23 23 23 23 23 22 22 23 23 23 23 24 24 24 25 26
26 27 27 27 27 27 27 26 25 24 24 24 24 24 25 24 24 23 24 24 25 25 25 25 24 24 23 22 22 22 23 23 23 22 23 23 23 24 24 24 24 25 26 26
27 27 27 27 27 28 27 25 24 24 24 23 22 22 23 23 23 24 24 24 23 23 23 23 23 23 23 22 22 22 22 22 23 23 23 23 23 24 24 24 24 25 26 27
27 27 26 26 26 26 26 25 24 24 23 23 23 23 23 23 24 24 24 23 23 23 23 23 23 23 22 22 22 22 22 22 23 22 22 23 23 23 23 24 24 25 26 26
26 26 26 26 26 26 26 25 25 25 24 24 24 24 24 23 24 24 24 23 23 23 23 22 22 22 22 22 22 22 22 22 22 22 22 22 22 23 23 24 24 25 25 26
25 26 26 26 26 26 26 25 25 25 24 24 24 24 24 24 24 24 24 24 23 23 23 22 22 22 22 22 22 22 22 22 22 22 22 23 23 23 24 24 25 26 26 27
24 25 25 25 25 26 26 26 26 25 24 23 23 24 24 24 24 24 24 24 23 23 23 23 22 22 22 22 22 22 22 22 22 22 22 22 22 23 23 24 25 25 26 27
24 24 24 25 25 25 25 25 25 24 24 24 24 24 24 23 23 23 23 23 23 23 23 22 21 21 21 22 22 22 22 22 22 22 22 22 22 22 23 23 24 25 26 26
24 24 25 25 25 25 25 24 23 23 22 22 23 23 23 23 22 22 22 22 22 22 22 21 21 21 21 21 21 22 22 22 22 22 22 22 22 22 23 24 24 25 26 26

GEFSNGP_500_meanwind_222.txt.gz
Wind_Speed
33 25 24 26 30 31 32 31 27 24 24 23 22 22 21 21 20 20 18 17 17 17 16 16 16 16 16 16 16 17 17 17 17 17 15 15 15 15 15 15 15 15 16 16
37 31 26 26 27 29 31 31 30 27 24 24 26 25 25 23 21 21 19 18 19 18 17 17 17 17 17 17 17 17 17 17 17 17 16 16 17 16 16 16 16 17 17 17
36 34 30 30 27 27 29 30 30 30 27 26 26 26 27 24 22 22 20 20 20 20 19 18 18 18 18 18 18 18 17 17 17 17 17 17 18 18 17 17 18 18 18 18
33 32 34 32 27 26 28 30 31 31 29 28 28 28 26 24 23 23 21 21 21 21 19 19 19 19 19 19 19 18 18 18 17 18 18 19 19 19 18 19 19 19 19 18
32 30 31 32 30 28 28 29 30 31 30 30 30 29 27 26 24 24 23 23 22 21 20 20 20 20 20 20 20 19 19 18 18 19 18 19 19 19 19 19 19 20 20 19
33 29 29 31 30 29 29 31 32 32 33 32 30 30 29 27 26 25 24 23 23 22 21 21 21 21 20 20 20 20 19 19 19 19 19 19 19 19 20 20 21 21 20 19
32 30 28 27 29 28 29 30 31 31 32 32 31 30 28 26 27 26 24 24 23 23 22 22 21 22 22 22 21 21 20 19 19 19 19 20 20 21 21 22 22 21 21 20
32 30 29 27 27 28 29 30 31 31 31 31 30 30 29 27 27 27 24 23 24 23 23 23 22 22 22 21 21 21 20 20 20 20 20 21 22 22 22 22 22 22 21 21
32 33 30 30 32 32 31 31 31 30 30 29 29 29 29 28 27 24 24 24 24 24 24 24 24 23 22 22 22 22 21 21 21 21 22 23 23 24 23 23 23 23 22 22
33 35 33 31 30 31 32 31 30 29 28 28 28 29 28 26 25 24 23 23 23 23 23 23 23 23 24 24 24 23 23 22 23 23 24 24 24 24 24 24 24 24 23 22
34 35 35 35 32 31 31 30 29 27 28 28 28 29 28 27 25 24 24 24 24 24 24 24 24 23 23 23 24 24 24 23 23 24 25 25 26 25 25 24 24 23 23 23
35 35 34 33 32 31 31 30 28 27 27 29 29 28 26 25 25 25 25 24 24 24 25 24 24 24 24 24 24 24 24 23 24 25 25 26 26 25 24 24 23 23 23 23
35 34 33 32 32 31 30 30 28 27 27 26 26 27 26 25 25 26 25 25 24 25 25 24 24 24 24 24 24 24 24 24 24 25 25 25 24 23 23 23 23 23 23 23
31 30 31 31 31 31 29 27 28 29 29 27 27 26 26 26 25 26 25 24 25 24 24 25 25 25 25 25 25 24 24 24 24 25 24 24 23 23 23 23 23 23 24 24
28 28 29 29 29 29 28 29 28 28 29 28 27 27 27 27 27 26 26 25 25 25 25 26 26 26 25 25 25 24 24 25 25 24 24 23 23 23 23 23 24 24 25 25
30 29 28 28 28 28 29 29 28 27 29 28 28 27 27 27 27 27 26 26 25 25 25 26 26 26 25 25 25 25 25 25 24 24 23 23 23 23 24 24 24 25 25 26
29 30 30 29 29 30 29 29 29 28 27 28 28 28 27 27 27 27 27 27 26 26 26 26 27 26 26 25 25 25 25 25 25 24 23 24 24 24 25 25 26 26 27 27
30 30 31 31 30 29 29 29 28 28 28 27 26 26 27 27 27 27 27 27 27 26 26 26 26 27 27 27 26 25 25 25 25 24 24 25 25 26 26 26 27 27 28 28
31 31 31 31 31 30 29 28 28 28 27 26 26 27 27 27 27 27 26 26 27 27 27 27 27 27 27 27 26 25 25 26 25 25 26 26 26 26 26 27 27 27 28 28
31 31 30 31 30 30 29 29 29 28 28 27 27 27 28 28 27 27 27 27 27 27 28 27 27 27 27 26 26 26 26 25 25 26 26 26 26 26 26 27 27 28 28 29
30 30 30 30 30 30 30 29 29 29 29 28 28 28 28 28 28 28 28 28 28 27 27 27 26 26 26 26 26 26 26 25 24 25 25 25 25 26 26 27 28 28 28 29
29 29 29 29 29 29 29 29 29 29 30 30 29 29 28 28 28 27 26 26 25 24 24 25 25 26 25 25 25 25 25 25 24 24 25 25 25 26 26 26 27 28 28 29
28 29 28 28 28 28 28 29 28 28 28 28 28 27 27 27 27 26 25 25 24 25 25 25 25 25 25 24 24 24 24 24 24 24 24 24 25 25 26 26 27 28 28 29
28 29 29 28 28 28 28 27 28 28 27 27 28 27 27 26 26 26 25 25 25 25 24 25 25 24 24 24 24 24 24 24 24 24 24 24 25 25 26 27 27 27 27 28
28 29 29 29 28 28 28 27 27 27 27 27 26 25 25 26 26 25 24 25 25 25 24 24 24 24 24 24 24 25 25 24 24 24 24 24 24 25 25 26 26 26 27 27
27 28 29 29 29 29 29 28 28 27 27 26 25 25 24 25 25 25 24 24 24 23 24 24 24 24 24 24 24 24 24 24 24 23 23 24 24 24 24 25 25 26 26 27
25 26 27 28 28 29 29 28 27 27 27 26 25 25 25 26 25 25 24 24 24 24 24 24 24 24 24 23 23 23 23 23 23 23 24 24 25 25 24 25 25 26 27 27

GEFSNGP_500_meanwind_228.txt.gz
Wind_Speed
34 34 34 33 32 33 33 32 30 29 27 24 23 22 21 20 19 17 16 14 14 14 14 14 14 13 13 13 12 13 13 13 13 13 13 14 13 13 13 13 14 14 14 15
35 35 35 35 34 33 33 32 31 30 29 26 24 23 23 21 20 20 18 16 16 15 15 15 14 14 14 13 13 13 13 14 14 14 14 14 14 14 14 14 15 15 15 15
36 36 37 38 34 33 33 32 31 30 29 28 26 25 23 21 20 20 20 19 18 16 16 15 15 15 15 14 14 14 14 14 14 14 14 14 14 14 15 15 16 16 16 16
38 37 39 35 33 32 31 31 31 30 29 28 27 26 24 24 22 21 21 20 19 17 17 17 16 16 16 16 16 15 15 15 15 15 15 15 15 16 16 17 17 17 17 17
38 39 38 36 33 32 31 31 31 31 30 30 28 28 27 26 24 23 22 20 20 18 18 18 18 18 17 17 17 16 16 17 17 16 16 16 16 16 17 17 17 17 17 18
38 39 39 36 34 32 32 32 31 31 31 31 31 30 28 26 25 25 24 22 21 20 20 20 20 19 19 19 18 17 17 18 18 17 17 17 17 18 18 17 18 17 18 19
36 37 37 36 36 34 34 33 32 32 31 31 31 31 29 29 28 27 26 24 23 22 22 22 20 20 21 20 19 18 18 19 18 18 18 18 18 19 19 19 19 19 20 20
36 36 37 36 37 38 36 33 32 32 33 33 32 31 30 30 29 29 27 26 24 22 22 22 22 22 21 21 19 19 19 20 20 19 19 19 19 19 19 20 20 21 21 21
36 36 34 35 36 37 37 35 33 32 32 34 34 32 31 30 30 28 27 26 24 23 23 24 24 24 23 22 21 20 20 21 21 20 20 20 20 20 20 20 21 22 22 23
37 37 35 34 34 35 35 36 34 33 32 32 33 32 32 31 31 29 28 27 25 24 24 24 25 24 23 23 23 21 22 23 22 21 20 20 20 20 21 22 22 23 24 24
37 36 35 35 35 34 34 35 35 34 33 32 31 32 32 32 32 31 30 28 27 26 25 25 24 23 22 22 21 21 21 22 21 21 20 20 20 21 22 23 23 24 24 23
35 35 35 36 37 36 35 35 35 35 35 31 30 30 31 31 31 31 31 30 29 28 27 25 25 24 24 23 22 22 22 21 21 21 20 21 21 22 23 23 23 23 23 23
34 35 35 36 37 35 35 35 35 35 34 32 30 29 29 29 29 29 30 30 28 27 26 26 26 25 24 24 22 22 23 23 22 22 22 22 22 23 23 23 23 23 23 23
33 34 36 37 36 35 34 33 33 33 32 31 30 28 27 27 28 28 28 29 28 27 26 26 25 24 24 24 23 23 23 23 23 23 23 22 22 23 23 23 23 23 23 23
34 32 32 34 34 35 34 33 32 30 29 27 26 26 26 25 25 25 26 27 26 25 25 25 24 23 22 23 23 23 24 24 24 23 23 23 24 24 24 23 23 23 23 24
31 32 30 30 31 32 32 32 31 29 28 26 26 26 25 25 24 23 23 24 25 24 24 24 23 22 22 23 24 24 24 25 25 25 24 24 23 23 23 23 23 24 25 25
26 27 27 27 28 29 30 30 30 31 29 27 27 27 25 24 24 23 23 23 23 23 23 24 23 23 23 24 24 24 24 24 24 24 23 23 23 23 23 24 24 25 26 26
24 24 25 25 26 26 26 28 28 28 28 27 26 25 25 24 24 23 22 22 22 22 23 23 22 23 23 24 24 24 24 24 24 25 24 24 24 23 23 24 25 26 27 28
25 23 23 23 22 22 22 22 23 23 25 26 25 25 25 24 24 23 22 22 23 23 23 23 23 24 24 24 24 25 25 25 25 25 25 25 25 24 23 24 25 26 27 27
23 23 22 22 22 21 20 20 20 21 22 23 23 23 24 24 23 23 23 23 23 23 23 23 24 24 24 24 24 24 25 25 25 25 26 26 25 24 24 24 25 25 25 25
21 21 21 21 22 21 21 20 21 21 21 20 21 21 22 21 21 22 23 23 23 24 23 23 24 24 24 24 24 24 25 25 25 25 25 25 24 24 24 24 24 24 24 25
20 21 21 22 22 22 22 22 21 21 21 20 20 20 21 22 21 22 24 24 24 24 23 24 24 23 23 24 23 23 24 24 24 23 23 23 23 23 23 24 24 24 24 25
22 22 23 23 24 23 23 22 22 21 21 21 21 21 21 21 21 21 22 22 22 22 23 23 23 23 23 23 23 23 22 22 22 22 22 23 22 22 23 24 24 24 24 25
24 24 24 24 24 23 22 22 22 21 21 21 21 22 22 22 22 22 21 21 21 21 22 22 22 22 22 22 22 22 21 21 21 22 22 22 22 22 23 24 24 24 24 25
23 23 23 23 23 23 23 23 23 22 22 22 22 22 21 21 21 21 22 22 22 23 23 23 23 22 21 21 21 22 22 21 22 21 21 21 21 22 23 23 23 24 25 25
22 22 23 23 22 22 22 22 22 22 22 22 22 22 22 21 22 22 22 22 22 22 23 23 23 23 23 22 22 22 22 22 22 21 21 21 21 21 22 23 23 23 23 23
22 22 23 23 23 22 22 23 22 22 22 22 22 22 22 21 22 21 21 21 21 22 22 21 21 21 22 22 22 22 21 21 21 20 20 20 21 22 23 22 22 22 23 24

GEFSNGP_500_meanwind_234.txt.gz
Wind_Speed
35 35 35 34 34 33 33 32 31 29 26 23 22 21 20 19 18 17 16 16 16 15 16 16 16 15 15 14 13 14 14 14 13 13 13 13 14 14 14 14 14 14 14 14
36 36 36 35 34 33 33 32 31 30 28 25 24 23 21 21 20 19 18 18 17 17 17 17 17 16 16 16 15 15 15 15 14 14 14 14 14 14 15 15 15 15 15 16
37 36 36 37 34 33 33 32 31 31 29 27 26 24 22 21 20 20 19 19 18 18 17 17 17 17 17 17 17 17 17 16 16 16 16 16 16 16 16 16 16 16 16 17
35 36 38 35 34 34 34 33 32 31 29 29 27 25 24 23 22 21 20 19 19 18 18 18 18 17 17 18 18 18 18 18 18 18 18 17 17 18 17 17 17 17 17 17
35 36 36 35 34 34 34 34 33 32 30 29 28 27 26 23 22 22 22 21 20 19 19 19 19 19 19 19 19 19 19 19 19 19 19 19 18 19 18 18 18 18 18 18
36 36 36 34 34 34 35 35 33 33 31 30 29 29 26 24 23 23 23 22 21 20 20 20 20 20 20 20 20 20 19 19 20 20 20 21 21 20 20 19 19 19 19 20
36 36 35 34 34 34 35 34 33 33 32 31 30 28 26 26 26 25 24 24 24 23 23 22 22 21 21 20 20 20 20 20 21 21 22 22 22 21 20 19 20 20 20 21
36 36 36 35 34 35 34 33 33 32 32 31 30 29 27 27 27 27 25 25 24 24 24 23 22 21 21 20 20 20 21 22 23 23 22 22 22 20 19 19 19 20 20 22
36 36 35 35 35 35 34 34 33 33 32 31 30 29 29 29 28 27 26 25 25 24 23 24 23 22 22 22 22 21 22 22 23 23 23 23 21 21 21 20 20 21 22 22
35 35 34 34 35 34 33 32 32 33 32 32 32 30 30 31 30 29 28 27 26 25 24 25 24 24 23 23 23 23 23 22 22 22 22 23 22 22 20 20 21 22 22 22
35 35 35 34 34 33 32 32 32 32 32 32 32 32 32 32 31 30 30 29 29 28 26 24 24 24 24 23 23 23 23 23 23 23 24 24 23 22 23 21 22 22 22 22
35 35 35 35 34 33 33 32 32 31 31 32 33 32 32 31 31 31 30 30 28 28 27 27 26 26 25 25 24 24 24 24 23 23 23 23 24 24 24 23 22 22 22 23
34 34 34 34 34 34 33 33 33 31 31 32 32 32 32 31 31 30 29 28 28 27 26 26 26 25 24 23 23 23 23 24 25 25 24 24 24 24 24 23 23 23 23 23
33 32 32 33 33 33 33 33 34 33 32 32 32 32 31 31 31 31 30 28 27 26 25 25 24 23 23 23 22 23 23 24 25 25 24 23 24 24 24 24 24 24 23 24
32 31 31 31 32 33 34 34 33 33 33 33 32 32 32 32 30 28 28 28 27 27 26 25 25 24 24 23 22 23 23 23 24 24 24 24 24 24 23 23 24 24 24 25
33 32 31 31 32 33 34 34 33 33 33 33 34 33 32 31 28 26 26 26 25 25 26 25 25 25 24 23 23 23 23 23 23 23 23 24 24 24 24 25 25 26 26 26
31 31 32 32 32 33 34 34 33 32 31 32 32 32 31 30 29 27 26 24 24 24 25 25 25 25 24 22 22 22 23 23 24 24 24 24 24 24 25 25 26 26 26 27
30 29 30 30 31 32 33 33 33 32 31 31 30 30 29 29 28 26 25 25 24 23 23 24 24 24 23 22 21 21 22 23 23 24 24 24 24 25 26 26 25 26 27 27
27 28 28 29 29 30 29 30 30 31 30 30 30 31 29 28 28 27 25 24 23 23 22 22 22 22 22 21 21 21 22 23 23 23 24 24 24 25 25 26 26 26 27 27
25 25 25 26 26 26 25 26 26 27 27 28 29 28 27 27 26 25 24 23 22 22 22 22 21 21 21 21 21 22 22 22 23 23 24 24 24 25 26 26 26 27 28 27
21 21 22 23 23 23 22 23 24 24 25 26 26 26 25 25 25 24 23 23 23 22 22 22 21 21 22 22 21 21 21 22 22 22 23 24 25 25 25 26 26 27 27 26
19 19 20 21 21 20 21 22 21 21 22 23 24 24 24 24 24 24 24 24 23 23 22 22 21 22 22 22 21 21 21 22 23 23 24 24 25 25 25 26 26 26 26 26
17 18 19 21 21 20 21 21 19 19 20 20 22 23 24 25 25 25 24 24 24 24 24 23 23 23 23 23 22 22 22 22 23 24 24 25 25 25 25 25 25 25 26 26
18 19 18 19 20 21 20 20 20 20 20 21 22 23 23 23 24 24 24 24 24 24 24 23 23 23 23 23 23 23 22 22 23 24 25 25 25 25 25 25 26 26 26 26
19 19 19 19 19 19 19 19 21 22 21 22 23 24 24 25 25 24 24 24 24 23 24 23 23 22 23 23 22 22 23 23 23 24 24 25 25 25 25 25 25 25 25 26
20 20 21 20 20 20 19 19 21 22 22 23 23 23 23 23 24 23 22 22 22 22 22 22 22 22 22 22 23 23 23 24 24 24 24 24 24 24 24 24 24 25 25 26
20 20 20 20 19 19 19 20 21 22 23 23 23 22 22 22 22 22 22 21 22 23 23 23 23 23 23 23 23 23 23 23 23 22 22 23 23 24 24 24 24 25 25 25

GEFSNGP_500_meanwind_240.txt.gz
Wind_Speed
34 33 32 32 32 31 30 29 28 26 24 23 23 22 20 19 19 18 17 17 17 17 16 15 14 14 14 15 15 15 15 14 14 13 13 13 12 12 12 13 14 15 14 14
35 34 33 33 32 32 31 30 30 28 26 25 25 23 22 21 20 19 18 19 19 18 17 16 16 16 16 16 16 16 16 15 14 14 14 13 13 13 14 15 15 16 16 16
35 35 35 35 34 33 32 32 31 30 28 26 26 25 23 22 22 21 20 19 19 19 19 18 18 18 18 18 17 17 16 16 15 15 14 15 15 15 15 16 16 17 19 18
35 36 37 35 34 34 33 33 33 32 30 28 27 26 24 24 24 23 22 22 21 21 21 20 19 19 19 19 18 18 17 15 15 15 15 15 16 16 16 17 18 19 20 20
36 35 35 36 35 34 34 33 33 32 31 29 28 27 26 26 26 25 24 23 23 22 21 21 20 19 19 19 19 18 16 15 16 16 16 16 17 17 17 18 19 19 20 20
36 35 33 36 35 34 34 34 33 33 32 31 30 29 28 27 27 26 26 25 24 24 23 22 21 20 20 20 19 19 17 17 17 17 17 18 19 19 19 19 19 19 20 20
36 35 33 35 34 33 34 35 33 32 32 32 32 31 30 28 28 27 27 27 26 25 24 23 22 21 21 20 20 20 20 19 19 18 18 18 19 19 19 19 18 18 19 20
36 35 34 36 34 34 34 34 34 33 33 33 33 32 31 30 29 28 28 28 27 27 26 25 24 23 22 22 21 20 21 21 21 20 20 19 19 19 19 19 18 19 20 20
36 36 36 36 35 34 34 34 34 34 33 33 33 33 32 31 30 29 29 29 29 29 28 28 27 25 24 24 23 22 21 21 21 21 21 20 20 20 20 19 20 21 21 22
36 36 35 35 34 34 35 35 34 34 34 34 34 34 33 32 31 31 30 30 30 30 30 29 29 28 27 26 25 24 23 23 23 22 22 22 22 21 21 21 22 22 22 23
36 36 36 35 34 33 33 33 33 34 34 34 34 34 34 34 33 33 33 32 32 31 31 31 30 30 29 29 28 26 25 25 25 24 23 22 21 21 21 22 22 22 23 23
35 35 35 35 34 33 33 32 32 32 33 34 34 34 33 33 33 33 33 33 32 31 30 31 31 31 31 30 29 28 27 25 24 23 23 23 22 22 22 23 23 23 23 24
34 34 34 33 33 33 32 32 32 32 33 34 34 34 33 32 33 33 33 33 32 31 32 32 32 31 31 31 30 29 28 27 25 24 23 23 23 23 24 24 24 23 24 24
34 34 34 33 33 32 33 32 32 32 32 32 33 33 32 32 32 32 33 32 33 32 32 31 31 31 31 31 30 29 28 27 26 24 24 24 24 24 24 25 25 24 24 25
34 35 34 34 33 33 33 33 32 31 32 31 31 32 31 31 31 31 32 32 32 32 32 31 31 30 30 29 29 28 28 27 26 25 26 25 25 25 25 25 25 25 25 25
33 34 34 34 33 33 33 33 33 33 33 33 32 32 31 31 30 31 31 30 30 30 30 30 29 29 29 28 27 28 28 27 27 26 25 25 25 25 25 25 25 25 25 25
31 32 32 32 32 32 32 33 33 33 32 32 33 33 32 31 31 31 30 29 29 29 29 29 28 27 26 26 26 27 26 25 25 25 25 26 26 26 26 25 26 26 26 26
29 30 30 31 30 31 32 33 33 33 33 33 33 32 31 31 31 30 29 29 30 28 27 27 26 25 24 24 24 24 25 25 25 25 26 26 26 27 27 27 27 27 26 26
30 30 29 30 29 30 30 31 32 32 32 33 33 32 32 31 31 31 31 31 29 27 27 27 26 26 25 24 24 25 25 26 25 25 25 25 26 27 27 27 26 26 26 26
29 29 28 28 29 29 29 30 30 30 31 31 31 31 31 31 32 32 32 30 29 28 27 27 26 26 26 25 25 25 24 25 25 25 25 26 26 26 26 26 25 25 24 25
27 27 27 27 27 26 26 28 28 29 29 28 29 30 30 30 32 32 31 29 28 28 28 27 26 25 25 25 25 25 25 25 25 26 26 26 26 26 25 25 24 24 25 26
24 25 26 26 26 26 26 27 28 28 28 28 27 28 28 28 29 29 28 27 26 26 26 26 26 26 26 26 26 26 26 26 26 27 26 26 25 25 25 25 25 26 26 26
21 23 24 25 25 25 26 26 26 25 25 24 24 24 25 26 27 28 28 27 26 27 27 27 27 27 27 27 27 27 27 27 27 27 26 25 25 25 25 25 26 26 26 25
20 21 22 23 23 23 23 23 23 23 23 22 22 23 24 24 25 26 27 27 27 27 27 27 27 28 28 28 27 27 27 27 27 26 26 25 25 25 26 26 26 26 25 25
19 20 21 21 22 22 22 21 20 20 20 21 22 23 23 24 25 26 27 27 26 26 26 26 26 27 27 27 26 26 26 25 25 25 26 25 25 25 25 25 26 25 25 25
19 19 21 21 21 21 21 21 22 22 21 21 21 22 23 24 25 25 26 26 26 25 25 25 25 25 25 26 26 26 26 26 26 26 26 26 25 25 26 25 25 24 25 25
17 18 20 20 20 20 21 21 21 21 21 21 21 22 23 24 24 25 25 25 25 25 25 25 25 25 25 26 26 26 25 26 26 26 26 25 25 25 25 24 24 24 25 25

GEFSNGP_500_meanwind_246.txt.gz
Wind_Speed
32 29 28 27 27 27 27 27 26 24 22 21 22 22 22 22 21 19 19 18 17 17 17 16 15 15 15 15 15 15 15 15 15 16 16 15 16 16 16 15 15 16 16 17
33 31 29 29 28 27 27 27 27 26 25 24 25 25 25 24 24 21 21 20 20 19 18 18 17 16 16 16 16 16 16 16 16 16 16 16 17 18 17 16 16 17 17 18
34 32 31 31 29 28 28 28 28 27 26 26 28 28 29 28 25 22 22 22 22 22 21 19 18 18 17 16 16 17 17 17 17 17 18 18 18 19 18 17 17 18 18 18
37 34 34 32 28 28 28 29 29 28 29 29 29 30 30 29 27 24 24 25 24 24 23 21 20 19 19 18 17 17 17 18 18 18 19 19 20 20 18 18 18 18 18 19
37 36 35 33 31 30 29 30 30 31 31 30 30 31 32 31 29 28 27 27 27 26 24 23 22 22 21 20 19 19 19 19 20 20 20 20 20 20 18 18 18 18 18 19
38 37 35 34 32 32 32 33 32 32 32 31 32 32 32 31 30 29 27 27 28 27 26 25 24 24 23 23 22 21 21 21 22 21 21 21 21 19 19 18 18 19 19 19
37 37 36 34 34 34 35 35 34 34 34 33 33 33 33 33 31 29 28 28 28 28 28 27 26 26 25 25 24 24 24 23 23 23 22 21 21 21 20 19 20 20 20 20
38 37 36 36 34 35 37 36 36 35 35 36 35 35 35 34 33 32 31 30 29 29 29 28 28 28 27 27 26 25 25 25 25 24 24 23 22 21 21 21 21 21 21 21
38 38 38 38 37 37 38 37 37 37 37 36 36 35 35 35 35 34 32 32 31 30 30 30 30 29 29 28 28 27 27 26 26 25 24 24 24 23 22 22 23 23 23 23
37 38 40 39 39 39 40 39 38 37 37 37 36 36 35 36 36 35 34 33 33 32 31 31 31 31 31 30 30 29 29 28 27 27 26 26 25 25 24 24 24 24 24 24
38 38 40 41 40 40 38 38 38 38 37 37 37 36 36 36 37 36 35 35 34 34 33 33 33 32 32 32 31 31 30 30 29 29 28 27 27 27 27 26 26 25 25 25
38 39 40 41 41 40 39 39 39 38 38 37 37 37 36 36 36 36 35 35 35 35 35 34 34 33 33 33 32 32 32 31 30 30 29 29 28 28 28 29 28 28 28 27
36 37 38 40 40 40 39 39 39 39 38 37 37 37 37 36 36 37 36 36 36 36 35 34 34 34 34 33 33 33 32 32 31 31 31 30 29 29 30 30 30 30 30 28
35 35 37 38 38 39 39 39 39 39 39 38 38 37 36 37 36 36 36 36 35 35 34 33 33 33 34 34 33 33 33 32 31 32 32 31 31 31 31 31 31 32 31 29
35 35 37 37 38 39 38 38 38 38 38 38 37 36 36 36 36 36 35 36 35 34 33 33 33 33 33 34 34 34 33 33 33 33 32 32 32 32 32 32 32 32 32 30
35 35 35 36 36 37 37 37 36 36 36 37 37 37 36 36 35 35 34 34 34 34 33 32 32 32 32 32 32 32 33 33 33 33 33 32 32 33 32 31 31 31 30 29
33 34 34 35 35 36 36 36 36 35 36 37 36 36 35 35 35 34 34 33 33 33 32 31 32 32 32 32 32 33 33 34 34 33 33 32 31 31 31 31 31 30 29 29
32 33 33 34 35 35 36 36 36 36 36 36 36 35 34 35 35 34 34 33 33 32 31 31 30 30 31 31 32 32 32 31 31 31 30 30 30 30 30 30 29 28 28 28
30 32 32 33 33 34 35 35 35 35 35 35 35 34 33 34 35 34 33 33 32 31 31 31 31 30 31 31 31 30 31 30 29 29 29 29 29 29 29 29 28 28 28 28
29 30 31 31 32 33 34 33 33 34 33 33 33 33 33 34 34 34 33 33 32 31 31 31 31 31 31 31 31 30 29 29 29 28 28 28 28 28 28 27 27 28 28 28
29 29 30 30 30 31 31 31 32 32 32 32 33 33 33 34 34 34 33 33 32 31 32 32 31 31 31 30 28 28 28 28 28 28 28 28 28 27 27 26 27 28 29 29
27 27 26 27 27 28 29 30 31 31 31 31 31 32 32 33 33 33 33 33 34 32 32 31 30 30 30 28 27 27 26 27 27 28 28 28 28 28 28 28 29 29 29 29
27 26 26 27 26 27 28 29 29 29 29 29 30 30 31 32 32 32 33 32 33 33 32 31 31 29 28 27 27 27 27 27 27 28 28 28 28 28 29 29 28 27 27 27
23 24 25 26 26 27 26 26 27 27 27 27 28 28 29 29 30 30 30 30 31 31 31 30 29 29 30 29 28 28 27 27 27 27 28 28 28 27 27 28 27 27 27 27
20 21 21 23 24 24 24 24 24 24 25 25 25 25 26 26 27 27 27 28 29 29 30 29 29 29 29 29 29 28 27 27 27 26 26 25 26 26 27 27 27 27 27 26
18 19 20 20 20 21 22 22 22 22 22 22 23 24 25 25 24 24 25 26 26 27 27 27 27 27 27 27 27 27 27 26 26 26 26 25 26 26 26 26 27 26 26 25
16 17 17 17 18 19 19 20 20 21 21 21 21 22 23 22 22 22 22 22 22 22 23 23 24 24 25 25 26 26 25 25 25 25 25 25 25 26 26 26 26 26 25 25

GEFSNGP_500_meanwind_252.txt.gz
Wind_Speed
33 33 33 33 32 31 30 28 27 26 24 22 20 19 19 19 18 18 17 16 16 15 15 14 13 12 10 9 9 9 9 9 9 10 11 11 11 11 11 12 13 13 14 14
35 34 34 34 33 32 31 30 29 28 25 23 21 21 21 21 20 19 20 19 18 17 17 16 15 14 12 11 11 10 10 10 10 11 12 12 12 13 13 13 13 14 14 15
36 36 35 35 32 32 32 31 30 29 26 24 24 24 23 22 22 21 22 21 21 21 19 18 17 16 14 14 13 12 12 12 12 12 13 14 14 14 14 14 14 15 15 15
37 37 38 35 34 33 33 32 31 30 28 27 26 25 24 23 23 23 24 24 23 23 22 21 20 18 17 16 15 14 14 14 14 14 14 15 15 15 15 16 16 15 16 17
38 39 38 36 35 35 34 34 33 32 30 29 28 27 26 26 25 24 25 25 25 25 24 23 22 21 20 19 18 18 17 16 17 17 16 16 16 16 16 16 17 18 18 18
39 40 39 35 34 35 35 36 35 33 31 30 29 30 28 28 27 26 26 26 26 26 25 25 23 22 21 21 20 20 19 18 19 18 18 18 18 18 18 18 18 19 19 19
39 40 40 36 36 35 36 36 35 34 32 31 30 30 30 30 29 29 28 27 28 27 26 26 24 22 22 22 22 21 21 21 21 20 20 20 19 20 19 19 19 19 19 18
39 40 39 37 37 37 37 36 35 34 33 33 32 32 31 32 32 31 31 30 29 28 28 27 26 24 23 24 24 24 25 24 22 21 22 22 22 21 21 20 20 19 18 19
39 40 38 37 37 38 38 38 37 36 35 34 34 34 33 34 34 34 32 32 31 31 30 29 28 27 26 26 26 26 26 25 24 24 23 23 23 23 23 22 22 21 20 20
39 39 39 39 38 38 38 39 39 39 37 37 37 36 35 35 35 36 34 33 32 32 32 31 30 29 29 29 28 28 27 27 26 26 25 24 24 24 24 24 24 23 22 22
38 38 39 39 39 38 38 39 39 40 40 39 38 38 37 37 36 36 36 35 34 34 33 33 32 32 31 31 31 30 29 29 28 27 26 26 25 25 25 25 25 24 24 24
37 36 37 38 39 40 40 40 40 40 40 40 40 39 39 39 39 38 38 38 37 35 35 34 34 33 33 33 33 33 32 31 30 29 29 27 27 27 26 27 27 27 26 26
36 36 36 36 37 39 40 40 40 40 39 40 40 41 42 41 40 39 39 38 37 37 36 35 34 34 35 35 35 34 34 33 32 32 31 30 28 28 28 29 29 29 28 27
36 36 35 35 36 37 38 39 39 39 39 39 40 40 42 42 42 41 41 40 39 38 37 36 36 36 36 36 35 34 34 34 33 33 32 31 30 30 30 30 30 30 29 29
37 36 35 34 35 37 38 38 39 39 39 39 38 39 40 41 41 41 41 41 40 39 38 37 37 37 36 35 35 34 34 33 32 32 32 31 31 31 31 31 31 31 31 30
36 37 36 35 35 35 35 37 38 38 38 38 39 39 40 40 40 40 40 40 40 39 38 38 38 37 36 35 34 34 33 33 32 32 33 32 32 32 31 31 31 32 31 30
34 34 35 35 35 35 35 35 35 36 37 38 39 39 40 40 40 40 40 40 38 37 36 36 36 35 35 34 34 33 32 32 32 33 33 33 33 33 32 32 31 31 31 30
31 31 32 33 33 33 34 35 35 36 37 38 39 40 40 40 40 40 40 39 37 36 36 36 35 34 34 33 33 32 32 32 32 32 32 32 32 32 32 32 31 31 30 31
29 29 30 31 31 32 34 34 34 35 36 38 38 38 39 39 39 39 39 37 35 34 34 34 34 33 32 32 32 32 31 31 31 31 31 31 31 31 31 31 31 31 31 31
28 30 31 31 32 32 33 34 34 34 35 35 35 35 35 36 36 36 36 35 33 32 32 32 32 32 31 31 31 30 30 30 31 31 32 32 31 30 30 30 30 30 30 29
28 29 29 30 30 30 30 31 31 30 30 31 32 32 32 33 33 33 33 33 32 30 30 30 30 30 30 30 29 29 30 30 31 31 31 30 29 28 28 28 29 29 29 29
27 27 28 28 28 28 29 28 28 28 29 29 30 31 30 31 30 30 30 29 29 29 29 30 30 30 30 29 29 29 29 29 29 29 28 28 28 28 28 28 28 28 29 29
25 26 26 27 27 26 26 26 26 27 27 27 27 27 27 26 25 25 26 26 27 28 28 28 28 28 29 29 29 29 29 28 28 28 27 27 28 28 28 27 27 28 29 28
23 23 23 24 24 24 24 25 25 26 26 25 24 24 24 23 22 23 24 25 26 26 27 28 28 27 27 27 28 28 28 27 26 26 26 26 26 26 27 27 27 27 27 27
21 21 22 22 21 22 23 23 23 23 23 23 23 24 23 23 24 24 24 24 24 25 26 27 28 28 27 26 25 25 25 25 24 24 25 25 25 25 26 26 26 26 26 26
19 19 20 20 20 21 21 20 21 21 21 22 22 22 22 23 23 23 23 24 24 25 26 26 26 25 24 24 24 24 24 24 24 24 24 24 24 25 25 25 24 24 24 24
17 17 18 18 18 18 19 19 19 19 19 20 21 21 21 22 23 24 24 23 24 24 25 24 24 23 23 24 23 23 23 23 23 23 23 24 24 24 23 23 23 23 23 24

GEFSNGP_500_meanwind_258.txt.gz
Wind_Speed
34 34 34 34 33 31 30 29 28 26 24 22 20 21 20 19 18 17 16 15 15 14 14 14 13 12 12 13 12 12 12 12 12 12 13 12 12 12 13 13 13 13 13 13
35 34 35 35 35 34 33 32 30 29 26 24 23 22 22 21 20 19 18 18 18 17 16 16 15 14 14 14 15 15 15 15 15 14 15 14 14 14 14 14 14 15 14 15
36 35 36 37 36 36 35 34 32 31 28 26 24 23 23 23 22 20 20 20 20 19 18 18 18 17 16 16 16 17 17 17 17 17 16 16 15 15 15 16 16 16 16 16
38 37 38 36 35 36 35 35 34 32 30 28 25 24 24 23 23 21 21 21 21 20 20 20 20 19 18 18 18 18 19 19 19 20 19 18 17 17 17 17 17 17 17 17
39 39 39 37 36 36 36 35 35 33 32 31 29 27 26 25 24 23 23 23 22 22 22 21 21 20 19 19 19 20 20 20 20 20 20 20 20 19 18 17 18 18 18 18
38 39 39 37 36 35 35 35 34 33 33 32 31 29 27 27 26 25 25 24 23 23 23 23 22 21 21 21 21 21 22 23 22 21 22 22 22 22 20 19 19 20 20 20
38 38 38 36 36 36 36 35 34 33 34 34 33 31 30 29 29 27 27 26 25 25 25 25 24 23 23 24 23 23 24 24 24 23 23 23 23 22 22 22 21 21 21 21
38 38 37 35 36 36 36 35 34 33 33 34 34 33 33 32 32 31 30 29 29 28 27 27 27 27 26 25 24 24 24 24 25 25 24 23 22 23 23 24 23 22 22 23
38 37 36 35 35 35 35 36 35 35 34 34 34 34 34 34 34 34 34 33 32 31 30 30 30 29 29 27 26 26 26 26 26 26 26 25 24 24 25 25 25 24 24 24
37 36 36 36 36 36 36 36 36 36 35 35 35 35 35 35 35 36 36 36 35 35 34 33 33 33 31 30 29 29 29 29 29 29 28 27 26 26 26 27 27 26 26 26
36 35 36 36 36 37 36 36 36 36 36 36 37 37 37 37 37 36 37 37 36 35 35 36 35 35 34 33 32 31 31 31 32 32 31 29 28 28 28 27 28 27 27 28
35 35 36 37 37 38 37 36 36 37 37 36 36 37 37 37 38 38 38 37 38 38 38 38 38 37 36 35 35 34 33 33 33 33 33 32 31 30 29 29 29 29 30 29
36 36 37 37 38 38 37 36 36 36 37 37 37 37 37 38 38 39 39 38 39 39 39 39 38 38 38 37 36 35 35 35 34 34 34 34 34 33 32 32 32 32 32 31
37 37 37 37 37 37 38 37 36 37 37 37 37 37 37 38 39 39 40 40 40 40 40 39 40 39 38 38 38 38 37 36 36 35 35 35 35 35 34 33 33 33 33 33
37 37 36 36 36 37 38 38 37 37 37 37 37 37 38 38 38 39 39 39 39 39 39 39 39 39 39 39 39 39 38 37 37 37 36 35 35 35 34 33 33 33 33 33
37 36 35 36 36 37 38 38 38 37 37 37 38 38 38 38 39 39 39 39 39 38 39 39 40 40 40 39 39 39 38 38 38 38 36 36 36 36 35 35 34 34 34 34
35 36 36 36 36 37 37 37 38 37 37 38 38 38 38 38 38 38 38 38 38 38 39 39 40 40 40 39 38 38 39 39 39 38 37 36 36 36 36 36 35 35 34 34
34 35 36 36 35 35 35 36 37 38 38 38 38 37 37 37 36 37 38 38 39 39 39 39 39 40 40 39 38 38 38 38 38 37 37 37 36 36 35 36 36 36 35 34
32 32 33 33 34 34 34 34 35 36 37 37 37 36 36 36 36 36 36 37 38 38 38 38 39 39 39 39 38 39 39 39 38 36 36 35 35 35 35 36 36 34 34 34
32 31 32 32 32 32 32 33 33 34 35 36 36 36 36 36 35 35 35 35 36 36 36 37 37 37 37 37 37 38 37 36 35 35 34 34 33 34 34 34 33 33 33 33
31 32 32 31 31 32 32 33 33 34 34 34 34 35 35 35 35 34 34 33 33 34 35 35 35 35 35 35 36 36 35 34 33 33 33 33 33 33 34 33 33 34 33 33
29 29 30 30 31 31 32 32 32 32 33 32 33 33 34 34 34 34 33 33 33 33 33 33 33 33 34 34 33 32 31 31 30 31 32 32 33 33 33 33 33 33 33 33
26 26 27 28 29 30 30 30 30 30 30 31 32 32 32 33 33 33 32 31 31 32 32 32 32 32 32 31 31 30 30 29 29 30 31 31 31 31 32 32 32 32 32 32
23 24 25 25 26 27 28 28 29 29 29 29 30 30 30 31 31 31 31 30 30 30 31 31 32 31 30 30 30 31 31 31 30 30 31 31 30 29 29 30 30 31 31 31
20 22 23 23 23 24 25 26 26 27 28 28 28 28 28 28 28 28 28 29 30 30 31 31 31 30 29 30 29 29 30 30 30 29 28 27 27 27 27 27 28 28 29 29
18 19 19 19 21 22 23 22 23 24 25 25 26 26 26 27 27 27 27 27 27 28 28 28 27 28 28 28 28 27 28 28 27 26 26 26 26 25 25 26 26 26 26 25
17 18 18 18 19 20 21 21 21 21 22 23 23 24 25 25 26 27 27 26 26 26 27 28 28 27 27 27 27 27 27 27 26 26 25 25 25 25 25 24 24 24 24 24

GEFSNGP_500_meanwind_264.txt.gz
Wind_Speed
32 31 31 30 29 28 28 27 25 24 23 21 21 20 19 18 17 17 16 15 14 15 14 14 14 13 13 13 12 12 12 13 12 13 13 14 13 13 13 12 13 13 13 13
34 33 32 31 31 30 29 28 27 26 25 23 22 21 20 20 20 19 18 17 17 16 16 16 15 15 15 14 14 14 15 15 15 15 15 14 15 14 14 13 14 14 15 15
33 34 33 33 31 31 31 30 29 28 27 25 24 23 22 21 21 21 20 19 19 19 19 18 18 18 18 17 16 16 17 17 17 17 16 16 17 16 16 16 16 16 16 17
33 35 35 33 33 33 32 32 31 31 31 29 27 26 25 24 23 23 22 22 22 22 21 21 21 20 20 20 19 19 19 19 19 19 19 19 19 19 19 18 18 18 18 18
35 35 35 36 34 33 33 33 33 33 33 32 30 29 28 27 26 25 25 24 24 24 24 24 23 23 23 22 21 21 21 21 21 21 21 21 21 21 21 20 19 19 19 19
36 35 34 35 34 33 33 34 34 33 33 33 31 31 30 29 28 28 28 27 27 27 26 26 25 25 24 24 24 23 23 23 23 23 23 23 23 23 22 22 21 20 20 20
36 36 34 35 33 33 34 34 33 33 33 33 33 32 31 30 30 30 30 29 29 29 29 28 27 27 27 27 27 26 26 26 25 25 25 25 25 24 24 23 23 22 22 22
36 35 35 35 35 35 35 34 33 33 33 33 34 33 32 31 31 31 31 31 31 31 31 31 31 30 30 30 29 29 29 28 28 28 28 27 27 27 26 25 24 24 24 24
35 36 35 35 35 35 35 34 33 33 34 34 34 33 32 32 32 33 33 33 33 33 32 33 33 33 33 33 32 32 31 31 31 31 30 29 28 28 27 27 26 26 26 26
35 35 36 36 35 35 34 34 33 33 34 34 34 34 34 34 34 34 35 35 35 34 33 34 34 34 34 34 33 33 33 33 33 32 31 30 29 29 29 29 29 28 28 28
35 35 35 36 36 36 35 35 35 34 34 35 35 35 35 35 35 35 35 36 36 35 35 35 35 35 35 35 34 34 34 34 34 33 32 32 31 30 30 30 30 30 29 30
36 35 36 36 36 36 36 35 35 35 35 36 36 36 36 36 36 36 36 37 36 36 36 37 36 36 36 36 36 35 35 36 35 35 34 33 33 32 32 32 31 31 31 32
36 37 37 36 36 36 36 36 36 35 36 37 36 36 36 36 37 37 38 38 37 38 38 38 38 37 37 37 37 36 35 36 36 36 36 35 35 34 34 34 33 33 33 34
36 37 37 37 36 36 36 37 37 35 35 36 36 36 37 38 38 38 39 40 40 39 39 39 39 39 38 38 38 37 37 37 37 37 38 37 37 37 36 35 35 35 34 34
35 36 37 38 38 38 37 37 37 37 35 35 36 37 37 38 38 38 39 40 40 40 40 40 40 39 40 39 39 38 38 38 38 38 38 38 38 38 38 37 36 36 36 35
35 36 37 38 38 38 38 38 38 37 36 36 37 37 37 38 38 38 39 39 40 40 40 40 41 40 41 40 40 39 39 38 38 39 39 39 39 39 38 37 37 37 36 36
35 35 36 37 37 37 37 37 37 37 37 37 37 38 38 38 39 38 38 39 39 40 40 40 40 40 40 40 40 40 39 39 38 39 39 38 38 37 37 37 37 37 36 36
34 35 35 35 36 38 38 37 38 38 38 37 37 37 37 38 38 37 37 38 39 39 39 39 39 39 39 39 39 39 39 38 38 38 37 37 37 37 37 36 36 36 36 36
32 33 33 33 34 34 35 36 36 36 37 36 37 37 36 36 36 36 37 37 37 37 37 38 37 37 37 37 37 37 36 36 36 37 37 36 36 36 36 35 35 35 36 35
29 31 31 31 31 32 32 33 33 34 34 35 34 34 34 35 35 35 35 35 35 35 36 36 36 36 37 37 37 36 35 34 34 35 36 36 36 36 36 36 35 34 34 33
27 28 28 30 30 30 30 31 32 32 33 33 32 31 32 33 34 34 33 33 34 34 34 34 35 36 36 35 35 35 34 34 33 33 34 35 35 35 35 35 34 33 32 31
25 25 26 26 26 27 28 28 30 31 31 30 30 30 31 31 32 33 33 32 32 33 33 33 33 34 34 34 34 33 33 33 34 34 34 34 35 35 34 34 33 31 31 31
22 23 23 24 25 25 25 25 26 26 27 27 27 28 28 29 29 30 30 31 31 31 31 31 31 32 32 33 33 33 34 34 34 34 33 32 32 32 32 31 30 30 30 31
19 20 20 21 22 22 22 22 23 23 24 25 25 26 26 28 28 29 29 29 30 30 30 30 31 32 33 33 33 34 34 34 34 33 32 32 31 30 30 30 29 29 30 30
18 17 17 18 18 18 19 20 21 22 23 23 23 24 25 26 27 28 28 28 29 30 30 31 31 32 32 33 33 33 33 33 33 32 31 30 29 29 29 29 29 30 30 29
16 16 16 16 17 17 18 19 19 20 20 21 22 23 23 24 25 26 26 26 27 28 29 29 30 30 30 30 30 31 31 31 30 29 29 29 29 29 28 29 28 28 28 29
14 14 15 15 16 17 17 18 18 18 19 20 21 22 22 23 24 24 24 25 25 26 26 27 28 28 29 29 28 28 28 28 28 28 28 28 27 27 27 27 26 26 26 26